User: anonymous   Login
Location: Springfield
(37.2150°N, 93.2980°W)
Time: 14:38:23
(UTC-06:00)
Language:

Cosmos 1869 - Orbit

View from above orbital plane
View from above orbital plane
View from above satellite
View from above satellite

Ground track
Ground track

The orbit data is extracted from the following two-line orbital elements,

1 18214U 87062A   19047.91864372 -.00000120 +00000-0 -97233-5 0  9994
2 18214 082.5006 219.0764 0007416 230.8141 129.2429 15.08001894699150
Epoch (UTC): 16 February 2019 22:02:50
Eccentricity: 0.0007416
inclination: 82.5006°
perigee height: 537 km
apogee height: 547 km
right ascension of ascending node: 219.0764°
argument of perigee: 230.8141°
revolutions per day: 15.08001894
mean anomaly at epoch: 129.2429°
orbit number at epoch: 69915

The dashed part of the orbit path shows where the satellite is in the earth's shadow,  

DLR